Regional Weather Roundup
Issued by NWS Cleveland, OH

Home | Current Version | Previous Version | Graphics & Text | Print | Product List | Glossary On
Versions: 1 2 3 4 5 6 7 8 9 10 11 12 13 14 15 16 17 18 19 20 21 22 23 24 25 26 27 28 29 30 31 32 33 34 35 36 37 38 39 40 41 42 43 44 45 46 47 48 49 50
000
ASUS41 KCLE 280000
RWRCLE
OHIO REGIONAL WEATHER ROUNDUP
NATIONAL WEATHER SERVICE WILMINGTON, OH
800 PM EDT WED MAY 27 2015

NOTE: "FAIR" INDICATES FEW OR NO CLOUDS BELOW 12,000 FEET WITH NO
SIGNIFICANT WEATHER AND/OR OBSTRUCTIONS TO VISIBILITY.

OHZ001>008-015>018-024>027-034-035-043-044-280100-
   NORTHWEST OHIO

CITY           SKY/WX    TMP DP  RH WIND       PRES   REMARKS
DEFIANCE       CLOUDY    72  62  71 VRB3      30.02R
FINDLAY        CLOUDY    69  65  86 CALM      30.04R
TOLEDO EXPRESS CLOUDY    68  65  90 SW6       30.00F
TOLEDO EXEC    CLOUDY    70  63  78 SW6       30.01F
LIMA           CLOUDY    70  65  84 NE6       30.05R
$$

OHZ009>014-019>023-028>033-038-089-280100-
   NORTHEAST OHIO

CITY           SKY/WX    TMP DP  RH WIND       PRES   REMARKS
CLE-HOPKINS    TSTM      66  61  84 W14       30.06S
CLE-LAKEFRONT  RAIN      68  60  75 SW12      30.05R
CUY CO. ARPT   CLOUDY    66  64  94 SW7       30.07S
LORAIN-ELYRIA  LGT RAIN  65  63  93 W15G24    30.06R FOG
ASHTABULA      LGT RAIN  62  61  96 S3        30.09F FOG
AKRON-CANTON   PTCLDY    78  60  53 SW16      30.06S
WOOSTER        NOT AVBL
MANSFIELD      TSTM      66  62  87 NW14G24   30.08R
YOUNGSTOWN     MOCLDY    76  59  55 SW10      30.07R
$$

OHZ042-051>053-060>062-070>072-077>081-280100-
  SOUTHWEST OHIO

CITY           SKY/WX    TMP DP  RH WIND       PRES   REMARKS
CINC-COVINGTON CLOUDY    72  59  63 S17G23    30.10F
CINC-LUNKEN    CLOUDY    73  59  61 S21G26    30.10R
HAMILTON       CLOUDY    77  60  55 SW13G21   30.08S
DAYTON         NOT AVBL
WRIGHT-PAT AFB NOT AVBL
DAYTON GENERAL CLOUDY    77  59  53 SW10G20   30.06F
WILMINGTON     CLOUDY    76  62  62 SW18G26   30.08S
$$

OHZ036-037-039>041-045>050-054>059-063>069-073>076-082>088-280100-
  CENTRAL AND SOUTHEAST OHIO

CITY           SKY/WX    TMP DP  RH WIND       PRES   REMARKS
COLUMBUS       MOCLDY    79  61  53 S16G25    30.06S
OSU AIRPORT    CLOUDY    79  60  52 SW15G28   30.05S
BOLTON FIELD   NOT AVBL
RICKENBACK AFB NOT AVBL
NEWARK         MOCLDY    78  62  57 S13       30.06S
MARION         CLOUDY    69  61  75 NW7       30.07S
LANCASTER      MOCLDY    79  62  56 S8        30.08S
ZANESVILLE     CLEAR     77  62  59 SW9       30.08S
NEW PHILLY     CLEAR     80  62  54 VRB7      30.08R
$$



USA.gov is the U.S. government's official web portal to all federal, state and local government web resources and services.